Date String (YYYY-MM-DD hh:mm:ss) UTC,Instrument flags,absolute air pressure of the measurement (hPa),sample flow rate (lpm),inlet stack bypass flow (lpm),air temperature of the measurement (°C),ambient temperature measured by the external sensor (°C),aerosol sample conditioner tube jacket temperature (°C),OPC LED temperature (°C),internal box temperature (°C),relative humidity of the measurement (%),span deviation,mass concentration of particles derived from Lorenz-Mie calculation of OPC scattering (μg/m³),mass concentration of particles derived from Lorenz-Mie calculation of OPC scattering (μg/m³),mass concentration of particles derived from Lorenz-Mie calculation of OPC scattering (μg/m³)
DateTimeUTC,F1_M11,P_M11,Q1_M11,Q2_M11,T1_M11,T2_M11,T3_M11,T4_M11,T5_M11,U1_M11,ZSPAN_M11,X0_M11,X2_M11,X1_M11
2024-02-21 22:00:00,SystemResetWarning,0821.1,4.99,000.00,026.3,025.7,000.0,034.6,028.1,05.5,0000.0,0007.70,0001.05,0000.55
2024-02-21 22:01:00,SystemResetWarning,0821.1,5.00,000.00,026.3,025.7,000.0,034.6,028.2,05.5,0000.0,0007.62,0001.02,0000.53
2024-02-21 22:02:00,SystemResetWarning,0821.1,5.01,000.00,026.4,025.7,000.0,034.7,028.2,05.5,0000.0,0007.53,0001.04,0000.51
2024-02-21 22:03:00,SystemResetWarning,0821.2,5.01,000.00,026.4,025.7,000.0,034.7,028.2,05.6,0000.0,0007.58,0001.07,0000.51
2024-02-21 22:04:00,SystemResetWarning,0821.2,5.00,000.00,026.4,025.7,000.0,034.7,028.2,05.5,0000.0,0006.71,0001.06,0000.51
2024-02-21 22:05:00,SystemResetWarning,0821.1,5.00,000.00,026.4,025.7,000.0,034.7,028.2,05.3,0000.0,0006.51,0001.11,0000.53
2024-02-21 22:06:00,SystemResetWarning,0821.1,4.99,000.00,026.4,025.7,000.0,034.7,028.2,05.4,0000.0,0006.20,0001.06,0000.53
2024-02-21 22:07:00,SystemResetWarning,0821.1,4.99,000.00,026.4,025.7,000.0,034.7,028.2,05.5,0000.0,0005.38,0001.02,0000.53
2024-02-21 22:08:00,SystemResetWarning,0821.0,5.00,000.00,026.4,025.7,000.0,034.7,028.2,05.4,0000.0,0004.72,0000.98,0000.53
2024-02-21 22:09:00,SystemResetWarning,0821.2,5.01,000.00,026.4,025.7,000.0,034.7,028.2,05.5,0000.0,0004.85,0001.04,0000.54
2024-02-21 22:10:00,SystemResetWarning,0821.1,5.01,000.00,026.4,025.7,000.0,034.7,028.2,05.5,0000.0,0004.70,0001.13,0000.55
2024-02-21 22:11:00,SystemResetWarning,0821.1,4.99,000.00,026.4,025.7,000.0,034.7,028.2,05.4,0000.0,0003.54,0001.15,0000.55
2024-02-21 22:12:00,SystemResetWarning,0821.3,4.99,000.00,026.4,025.8,000.0,034.7,028.2,05.4,0000.0,0003.97,0001.20,0000.56
2024-02-21 22:13:00,SystemResetWarning,0821.2,4.99,000.00,026.4,025.8,000.0,034.7,028.2,05.4,0000.0,0005.69,0001.22,0000.57
2024-02-21 22:14:00,SystemResetWarning,0821.1,5.00,000.00,026.4,025.8,000.0,034.8,028.2,05.5,0000.0,0005.55,0001.19,0000.57
2024-02-21 22:15:00,SystemResetWarning,0821.1,4.99,000.00,026.4,025.8,000.0,034.8,028.3,05.6,0000.0,0005.46,0001.16,0000.57
2024-02-21 22:16:00,SystemResetWarning,0821.0,5.01,000.00,026.4,025.8,000.0,034.8,028.3,05.5,0000.0,0005.41,0001.15,0000.56
2024-02-21 22:17:00,SystemResetWarning,0821.1,5.01,000.00,026.4,025.8,000.0,034.8,028.2,05.4,0000.0,0006.30,0001.17,0000.55
2024-02-21 22:18:00,SystemResetWarning,0821.1,5.01,000.00,026.5,025.8,000.0,034.8,028.2,05.3,0000.0,0006.89,0001.20,0000.55
2024-02-21 22:19:00,SystemResetWarning,0821.0,4.99,000.00,026.5,025.8,000.0,034.8,028.2,05.3,0000.0,0007.67,0001.20,0000.55
2024-02-21 22:20:00,SystemResetWarning,0821.2,4.99,000.00,026.5,025.8,000.0,034.8,028.2,05.3,0000.0,0007.87,0001.17,0000.54
2024-02-21 22:21:00,SystemResetWarning,0821.3,4.99,000.00,026.5,025.8,000.0,034.8,028.3,05.2,0000.0,0008.32,0001.10,0000.54
2024-02-21 22:22:00,SystemResetWarning,0821.2,4.99,000.00,026.5,025.8,000.0,034.8,028.3,05.2,0000.0,0008.34,0001.14,0000.54
2024-02-21 22:23:00,SystemResetWarning,0821.2,5.00,000.00,026.5,025.8,000.0,034.8,028.3,05.3,0000.0,0007.79,0001.11,0000.54
2024-02-21 22:24:00,SystemResetWarning,0821.3,5.00,000.00,026.5,025.9,000.0,034.9,028.4,05.3,0000.0,0006.85,0001.09,0000.53
2024-02-21 22:25:00,SystemResetWarning,0821.3,5.00,000.00,026.5,025.9,000.0,034.9,028.4,05.5,0000.0,0007.08,0001.17,0000.53
2024-02-21 22:26:00,SystemResetWarning,0821.3,5.00,000.00,026.5,025.9,000.0,034.9,028.4,05.6,0000.0,0007.06,0001.17,0000.53
2024-02-21 22:27:00,SystemResetWarning,0821.3,5.00,000.00,026.6,025.9,000.0,034.9,028.4,05.5,0000.0,0006.95,0001.15,0000.53
2024-02-21 22:28:00,SystemResetWarning,0821.3,5.01,000.00,026.6,026.0,000.0,034.9,028.4,05.6,0000.0,0006.07,0001.15,0000.52
2024-02-21 22:29:00,SystemResetWarning,0821.3,5.00,000.00,026.6,026.0,000.0,034.9,028.4,05.4,0000.0,0005.78,0001.12,0000.53
2024-02-21 22:30:00,SystemResetWarning,0821.2,4.99,000.00,026.6,026.0,000.0,034.9,028.5,05.3,0000.0,0004.49,0001.16,0000.54
2024-02-21 22:31:00,SystemResetWarning,0821.2,5.00,000.00,026.6,025.7,000.0,035.0,028.3,05.2,0000.0,0004.25,0001.17,0000.55
2024-02-21 22:32:00,SystemResetWarning,0821.3,5.00,000.00,026.3,023.6,000.0,035.0,027.2,05.2,0000.0,0002.92,0001.16,0000.54
2024-02-21 22:33:00,SystemResetWarning,0821.3,5.01,000.00,025.9,022.1,000.0,035.0,026.4,05.2,0000.0,0002.84,0001.12,0000.54
2024-02-21 22:34:00,SystemResetWarning,0821.2,5.00,000.00,025.6,022.2,000.0,034.8,026.2,05.2,0000.0,0002.91,0001.14,0000.53
2024-02-21 22:35:00,SystemResetWarning,0821.3,5.00,000.00,025.5,022.6,000.0,034.6,026.5,05.4,0000.0,0002.76,0001.12,0000.53
2024-02-21 22:36:00,SystemResetWarning,0821.3,4.99,000.00,025.5,023.0,000.0,034.5,026.7,05.3,0000.0,0002.56,0001.04,0000.54
2024-02-21 22:37:00,SystemResetWarning,0821.2,5.00,000.00,025.5,023.4,000.0,034.4,026.9,05.5,0000.0,0002.79,0001.11,0000.54
2024-02-21 22:38:00,SystemResetWarning,0821.2,5.00,000.00,025.5,023.7,000.0,034.3,027.0,05.3,0000.0,0002.81,0001.11,0000.55
2024-02-21 22:39:00,SystemResetWarning,0821.3,4.99,000.00,025.5,024.0,000.0,034.3,027.1,05.5,0000.0,0002.87,0001.12,0000.56
2024-02-21 22:40:00,SystemResetWarning,0821.2,5.00,000.00,025.5,024.2,000.0,034.2,027.2,05.7,0000.0,0002.55,0001.13,0000.56
2024-02-21 22:41:00,SystemResetWarning,0821.3,5.01,000.00,025.5,024.4,000.0,034.2,027.3,05.8,0000.0,0002.39,0001.16,0000.56
2024-02-21 22:42:00,SystemResetWarning,0821.3,5.00,000.00,025.6,024.6,000.0,034.1,027.4,05.7,0000.0,0003.27,0001.14,0000.55
2024-02-21 22:43:00,SystemResetWarning,0821.3,5.00,000.00,025.6,024.7,000.0,034.1,027.4,05.5,0000.0,0003.39,0001.12,0000.55
2024-02-21 22:44:00,SystemResetWarning,0821.3,5.00,000.00,025.7,024.9,000.0,034.1,027.5,05.8,0000.0,0003.40,0001.14,0000.55
2024-02-21 22:45:00,SystemResetWarning,0821.3,5.00,000.00,025.7,025.0,000.0,034.1,027.6,05.7,0000.0,0003.21,0001.06,0000.56
2024-02-21 22:46:00,SystemResetWarning,0821.2,5.00,000.00,025.7,025.0,000.0,034.1,027.6,05.7,0000.0,0003.42,0001.08,0000.55
2024-02-21 22:47:00,SystemResetWarning,0821.3,5.00,000.00,025.8,025.1,000.0,034.1,027.7,05.6,0000.0,0003.66,0001.15,0000.55
2024-02-21 22:48:00,SystemResetWarning,0821.3,4.99,000.00,025.8,025.2,000.0,034.1,027.7,05.4,0000.0,0003.72,0001.11,0000.55
2024-02-21 22:49:00,SystemResetWarning,0821.3,4.99,000.00,025.8,025.3,000.0,034.1,027.7,05.4,0000.0,0003.83,0001.11,0000.55
2024-02-21 22:50:00,SystemResetWarning,0821.5,5.00,000.00,025.9,025.3,000.0,034.2,027.8,05.5,0000.0,0004.10,0001.14,0000.54
2024-02-21 22:51:00,SystemResetWarning,0821.7,5.01,000.00,025.9,025.4,000.0,034.2,027.8,05.4,0000.0,0004.54,0001.21,0000.56
2024-02-21 22:52:00,SystemResetWarning,0821.8,5.01,000.00,026.0,025.4,000.0,034.2,027.9,05.3,0000.0,0004.63,0001.17,0000.56
2024-02-21 22:53:00,SystemResetWarning,0821.5,5.01,000.00,026.0,025.5,000.0,034.2,027.9,05.3,0000.0,0003.87,0001.18,0000.55
2024-02-21 22:54:00,SystemResetWarning,0821.6,5.00,000.00,026.0,025.5,000.0,034.2,027.9,05.3,0000.0,0003.71,0001.22,0000.56
2024-02-21 22:55:00,SystemResetWarning,0821.6,5.00,000.00,026.0,025.5,000.0,034.3,027.9,05.3,0000.0,0003.67,0001.22,0000.57
2024-02-21 22:56:00,SystemResetWarning,0821.6,4.99,000.00,026.1,025.6,000.0,034.3,028.0,05.4,0000.0,0004.10,0001.23,0000.57
2024-02-21 22:57:00,SystemResetWarning,0821.7,5.00,000.00,026.1,025.6,000.0,034.3,028.0,05.3,0000.0,0005.17,0001.34,0000.59
2024-02-21 22:58:00,SystemResetWarning,0821.7,4.99,000.00,026.1,025.6,000.0,034.3,028.0,05.4,0000.0,0004.98,0001.29,0000.59
2024-02-21 22:59:00,SystemResetWarning,0821.7,5.00,000.00,026.2,025.7,000.0,034.4,028.1,05.4,0000.0,0004.65,0001.27,0000.59
